www.pogodaiklimat.ru

Погода и климат >> Архив погоды >> Россия >> Дагестан >> Хасавюрт


ПОГОДА в Хасавюрте

АРХИВ ПОГОДЫ в Хасавюрте

Время (UTC), дата Ветер
(напр.,м/с)
 
Видим.   Явления Облачность Т
(С)
Тd
(С)
f
(%)
Тe
(С)
Тes
(С)
Комфортность P
(гПа)
Po
(гПа)
Тmin
(С)
Tmax
(С)
R
(мм)
R24
(мм)
S
(см)
15 11.09 В 4 20 км 10/10 600 м
[Sc]
+21.9 +7.2 39 +23 +23 комфорт 1023.4 1010.9
18 11.09 В 2 50 км ясно +17.8 +10.5 62 +18 +18 по сезону 1024.7 1012.1
21 11.09 штиль 0 50 км ясно +14.6 +10.4 76 +14 +14 прохладно 1024.1 1011.4
00 12.09 штиль 0 50 км ясно +12.6 +10.3 86 +12 +12 прохладно 1024.4 1011.6
03 12.09 штиль 0 50 км ясно +12.0 +10.2 89 +11 +11 холодно 1025.0 1012.1 +11.4
06 12.09 СВ 2 50 км ясно +22.4 +12.3 53 +25 +32 комфорт 1024.9 1012.5
09 12.09 В 3 50 км 4/4 1000 м
[Cu med, cong]
+25.9 +10.4 38 +27 +33 жарко 1023.2 1011.0
12 12.09 В 2 50 км 4/0
[Ac As]
+22.6 +9.7 44 +24 +29 комфорт 1022.3 1010.1
15 12.09 В 2 50 км 8/8 1000 м
[Cu med, cong]
+20.4 +8.8 47 +22 +22 комфорт 1023.6 1011.1 +27.3
18 12.09 штиль 0 50 км ясно +15.5 +11.7 78 +15 +15 прохладно 1024.3 1011.6
21 12.09 Ю 1 50 км ясно +13.6 +10.9 84 +14 +14 прохладно 1023.8 1011.0
00 13.09 Ю 1 50 км ясно +12.2 +8.2 77 +12 +12 прохладно 1023.1 1010.3
03 13.09 штиль 0 50 км ясно +11.5 +8.1 80 +11 +11 холодно 1023.3 1010.4 +11.1
06 13.09 С 1 50 км ясно +20.9 +11.0 53 +24 +32 комфорт 1023.8 1011.4
09 13.09 В 3 н/о н/о +26.9 +12.5 41 +28 +37 жарко 1022.1 1009.7
12 13.09 В 5
{10}
50 км ясно +26.0 +8.5 33 +26 +29 жарко 1021.0 1008.8
15 13.09 В 3
{10}
50 км ясно +21.0 +10.0 49 +23 +23 комфорт 1021.9 1009.5 +27.3
18 13.09 В 2 50 км 3/0
[Ac trans]
+16.7 +12.1 74 +17 +17 по сезону 1022.7 1010.1
21 13.09 штиль 0 50 км ясно +14.3 +11.8 85 +14 +14 по сезону 1021.8 1009.1
00 14.09 штиль 0 50 км ясно +13.4 +10.1 80 +13 +13 по сезону 1021.4 1008.6
03 14.09 штиль 0 50 км ясно +12.2 +9.4 83 +12 +12 прохладно 1021.8 1008.9 +11.5
06 14.09 В 4 50 км ясно +21.8 +13.4 59 +25 +29 комфорт 1021.2 1008.8
09 14.09 В 5-11
{12}
н/о н/о +25.9 +8.2 33 +26 +26 жарко 1019.3 1007.1
12 14.09 В 4-10
{11}
50 км ясно +26.5 +8.2 31 +26 +31 жарко 1018.1 1005.9
15 14.09 В 4
{11}
50 км ясно +21.1 +11.9 56 +23 +23 комфорт 1017.5 1005.1 +26.7
18 14.09 В 2 50 км ясно +17.8 +12.3 70 +18 +18 тепло 1018.0 1005.5
21 14.09 ЮЗ 1 50 км ясно +15.9 +11.6 76 +17 +17 по сезону 1017.8 1005.2
00 15.09 Ю 1 50 км ясно +14.7 +10.9 78 +15 +15 по сезону 1017.4 1004.8
03 15.09 ЮЗ 1 50 км ясно +14.8 +10.6 76 +15 +15 по сезону 1018.1 1005.4 +13.3
06 15.09 З 1 50 км ясно +22.1 +11.4 51 +24 +32 комфорт 1018.7 1006.3 +13.3
09 15.09 СЗ 2 50 км 4/0
[Ac As]
+27.9 +11.4 36 +29 +38 жарко 1017.4 1005.3
12 15.09 З 1 50 км 6/6 1000 м
[Cu med, cong]
+28.5 +7.0 26 +28 +31 жарко 1016.6 1004.5
15 15.09 штиль 0 50 км 8/8 1000 м
[Cu med, cong]
+24.7 +8.3 35 +25 +25 комфорт 1017.1 1004.9 +28.7
18 15.09 ЮЗ 2 50 км 6/6 1000 м
[Cu med, cong]
+21.4 +11.1 52 +23 +23 комфорт 1018.2 1005.8
21 15.09 ЮЗ 3 50 км ясно +20.5 +8.6 46 +22 +22 комфорт 1018.5 1006.0
00 16.09 ЮЗ 3 50 км ясно +19.0 +8.9 52 +20 +20 тепло 1018.9 1006.4
03 16.09 ЮЗ 2 50 км ясно +17.4 +8.7 57 +18 +18 тепло 1018.8 1006.2 +17.4
06 16.09 СЗ 1 50 км ясно +22.5 +11.4 49 +25 +32 комфорт 1018.1 1005.8 +17.0
09 16.09 СВ 2 50 км ясно +28.1 +10.0 32 +28 +40 жарко 1015.0 1002.9
12 16.09 В 4 50 км 4/0
[Ac As]
+28.4 +9.0 30 +28 +31 жарко 1012.2 1000.2
15 16.09 В 2 50 км 4/4 1000 м
[Cu hum]
+23.8 +12.9 50 +26 +26 жарко 1011.0 998.9 +30.0
18 16.09 штиль 0 50 км ясно +19.7 +13.3 67 +21 +21 комфорт 1011.9 999.6
21 16.09 З 1 50 км ясно +19.3 +11.9 62 +22 +22 комфорт 1011.8 999.5
00 17.09 З 2 50 км 6/6 1000 м
[Cu med, cong]
+19.0 +11.4 61 +20 +20 тепло 1011.4 999.0
03 17.09 З 1 н/о н/о +19.1 +11.7 62 +21 +21 комфорт 1011.6 999.2 +17.5
06 17.09 З 2 50 км ясно +23.3 +13.0 52 +26 +33 жарко 1011.8 999.6
09 17.09 СЗ 2 50 км 4/4 1000 м
[Cu med, cong]
+28.9 +10.0 31 +29 +36 жарко 1009.7 997.7
12 17.09 С 2 50 км 4/0
[Ac As]
+30.4 +12.2 33 +31 +35 жарко 1008.5 996.6
15 17.09 штиль 0 н/о н/о +24.9 +12.8 47 +27 +27 жарко 1009.3 997.2 +30.4
18 17.09 З 2 50 км 8/8 600 м
[Cb cap]
+20.5 +10.7 53 +23 +23 комфорт 1011.9 999.6
21 17.09 ЮЗ 1 50 км ясно +18.5 +11.1 62 +20 +20 тепло 1011.8 999.4
00 18.09 ЮЗ 2 50 км 4/4 1000 м
[Cu hum]
+17.9 +11.6 67 +18 +18 тепло 1012.2 999.8
03 18.09 З 1 50 км ясно +17.8 +11.7 67 +19 +19 тепло 1014.0 1001.6 +17.0
06 18.09 З 2 50 км ясно +22.6 +10.3 46 +24 +31 комфорт 1015.2 1003.0
09 18.09 С 1 50 км ясно +27.2 +10.3 35 +28 +42 жарко 1014.5 1002.4
12 18.09 СВ 2 50 км ясно +30.4 +10.9 30 +31 +36 жарко 1012.8 1000.9

 

Местоположение метеостанции Хасавюрт (Дагестан, Россия): широта 43.25 долгота 46.58 высота над уровнем моря 117 м.

В архиве по умолчанию представлена погода в Хасавюрте за последнюю неделю. Архивные данные за месяц целиком и за предыдущие месяцы, начиная с января 2011 года, Вы можете получить, выбрав интересующий диапазон дат из раскрывающегося списка и нажав кнопку "Ввод!".


*Определитесь, кто Вы:
робот инопланетянин человек

Внимание! Время в таблицах - всемирное. Для получения местного времени необходимо прибавить поправку, которая равна 3 ч.

Смотрите также архив погоды в соседних городах и на ближайших метеорологических станциях:

Погода в Шелковской (Чечня, Россия) (35 км)
Погода в Гудермесе (Чечня, Россия) (39 км)
Погода в Бабаюрте (Дагестан, Россия) (42 км)
Погода в Буйнакске (Дагестан, Россия) (65 км)
Погода в Кизляре (Дагестан, Россия) (65 км)
Погода в Грозном (Чечня, Россия) (70 км)
Погода в Хунзахе (Дагестан, Россия) (76 км)
Погода в Махачкале (Дагестан, Россия) (77 км)
Погода в Шатое (Чечня, Россия) (84 км)
Погода в Гунибе (Дагестан, Россия) (100 км)

Пояснения к столбцам:

Ветер - указаны скорость ветра в м/с - средняя за 10 мин, порывы в срок и между сроками (в фигурных скобках) и направление, откуда дует ветер: С - северный, СВ - северо-восточный, В - восточный, ЮВ - юго-восточный, Ю - южный, ЮЗ - юго-западный, З - западный, СЗ - северо-западный.
Видимость - горизонтальная дальность видимости в метрах или километрах. При видимости от 1 до 10 км при отсутствии осадков обычно наблюдается дымка, при ухудшении видимости до 1 км и менее - туман. В сухую погоду видимость может ухудшаться дымом, пылью или мглою.
Явления - указаны атмосферные явления, наблюдавшиеся в срок или в последний час перед сроком; фигурными скобками обозначены явления, наблюдавшиеся между сроками (за 1-3 часа до срока); квадратными скобками обозначены град или гололедные отложения с указанием их диаметра в мм.
Облачность - указаны через наклонную черту общая и нижняя облачность в баллах и высота нижней границы облаков в метрах; квадратными скобками обозначены формы облаков: Ci - перистые, Cs - перисто-слоистые, Cc - перисто-кучевые, Ac - высококучевые, As - высокослоистые, Sc - слоисто-кучевые, Ns - слоисто-дождевые, Cu - кучевые, Cb - кучево-дождевые. Подробнее классификацию облаков см. в Атласе облаков (PDF).
T - Температура воздуха - температура, измеренная на высоте 2 м над землей.
Td - Температура точки росы - температура, при понижении до которой содержащийся в воздухе водяной пар достигнет насыщения.
f - Относительная влажность воздуха - влажноcть воздуха, измеренная на высоте 2 м над землей.
Te - Эффективная температура - температура, которую ощущает одетый по сезону человек в тени. Характеристика душности погоды. При расчете учитывается влияние влажности воздуха и скорости ветра на теплоощущения человека.
Tes - Эффективная температура на солнце - температура, которую ощущает человек, с поправкой на солнечный нагрев. Характеристика знойности погоды. Зависит от высоты солнца над горизонтом, облачности и скорости ветра. Ночью, в пасмурную погоду, а также при ветре 12 м/с и более поправка равна нулю.
P - Атмосферное давление - приведенное к уровню моря атмосферное давление.
Po - Атмосферное давление - измеренное на уровне метеостанции атмосферное давление.
Tmin - Минимальная температура - минимум температуры воздуха на высоте 2 м над землей.
Tmax - Максимальная температура - максимум температуры воздуха на высоте 2 м над землей.
R - Количество осадков - Количество выпавших осадков за период времени, мм. При наведении курсора мыши на число - период времени, за который выпало указанное количество осадков.
R24 - Количество осадков - Количество выпавших осадков за 24 часа, мм.
S - Снежный покров - Высота снежного покрова, см. При наведении курсора мыши на число - состояние снежного покрова и степень покрытия местности в баллах.